• In United Kingdom
  • List of Countries
  • For 7 days
  • Water Temperature
  • Satellite Maps
  • Weather Map
  • Weather Widgets
  • user-avatar
    Login

    Hourly Weather Marrakesh

    Today, 16 January, Tuesday

    Time Temperature Precipitation Wind Pressure Humidity
    00:00 +8°C° 0 mm 2 mps 725 mmHg 77%
    01:00 +7°C° 0 mm 2 mps 725 mmHg 77%
    02:00 +7°C° 0 mm 2 mps 725 mmHg 78%
    03:00 +7°C° 0 mm 2 mps 725 mmHg 76%
    04:00 +7°C° 0 mm 2 mps 725 mmHg 75%
    05:00 +7°C° 0 mm 2 mps 725 mmHg 73%
    06:00 +8°C° 0 mm 2 mps 725 mmHg 68%
    07:00 +9°C° 0 mm 2 mps 726 mmHg 63%
    08:00 +10°C° 0 mm 2 mps 726 mmHg 57%
    09:00 +13°C° 0 mm 2 mps 726 mmHg 52%
    10:00 +13°C° 0 mm 3 mps 726 mmHg 46%
    11:00 +16°C° 0 mm 3 mps 726 mmHg 40%
    12:00 +17°C° 0 mm 4 mps 726 mmHg 38%
    13:00 +18°C° 0 mm 4 mps 726 mmHg 35%
    14:00 +18°C° 0 mm 4 mps 725 mmHg 33%
    15:00 +17°C° 0 mm 3 mps 725 mmHg 37%
    16:00 +16°C° 0 mm 3 mps 725 mmHg 42%
    17:00 +15°C° 0 mm 2 mps 725 mmHg 46%
    18:00 +14°C° 0 mm 2 mps 726 mmHg 48%
    19:00 +14°C° 0 mm 2 mps 726 mmHg 50%
    20:00 +13°C° 0 mm 2 mps 726 mmHg 51%
    21:00 +13°C° 0 mm 2 mps 727 mmHg 50%
    22:00 +13°C° 0 mm 2 mps 727 mmHg 49%
    23:00 +13°C° 0 mm 2 mps 727 mmHg 48%

    Tomorrow, 17 January, Wednesday

    Time Temperature Precipitation Wind Pressure Humidity
    00:00 +12°C° 0 mm 2 mps 726 mmHg 47%
    01:00 +12°C° 0 mm 2 mps 726 mmHg 47%
    02:00 +12°C° 0 mm 2 mps 726 mmHg 46%
    03:00 +12°C° 0 mm 2 mps 726 mmHg 46%
    04:00 +12°C° 0 mm 2 mps 725 mmHg 46%
    05:00 +12°C° 0 mm 2 mps 725 mmHg 46%
    06:00 +13°C° 0 mm 2 mps 725 mmHg 45%
    07:00 +13°C° 0 mm 2 mps 725 mmHg 44%
    08:00 +14°C° 0 mm 2 mps 726 mmHg 43%
    09:00 +16°C° 0 mm 2 mps 725 mmHg 37%
    10:00 +18°C° 0 mm 2 mps 725 mmHg 32%
    11:00 +19°C° 0 mm 2 mps 725 mmHg 27%
    12:00 +20°C° 0 mm 3 mps 725 mmHg 27%
    13:00 +20°C° 0 mm 3 mps 724 mmHg 26%
    14:00 +21°C° 0 mm 3 mps 723 mmHg 26%
    15:00 +19°C° 0 mm 3 mps 723 mmHg 32%
    16:00 +18°C° 0 mm 3 mps 723 mmHg 37%
    17:00 +16°C° 0 mm 2 mps 723 mmHg 43%
    18:00 +16°C° 0 mm 2 mps 723 mmHg 48%
    19:00 +15°C° 0 mm 2 mps 723 mmHg 52%
    20:00 +14°C° 0 mm 2 mps 723 mmHg 56%
    21:00 +14°C° 0 mm 2 mps 723 mmHg 57%
    22:00 +13°C° 0 mm 1 mps 723 mmHg 58%
    23:00 +13°C° 0 mm 1 mps 723 mmHg 59%

    Day after tomorrow, 18 January, Thursday

    Time Temperature Precipitation Wind Pressure Humidity
    00:00 +13°C° 0 mm 1 mps 722 mmHg 58%
    01:00 +13°C° 0 mm 1 mps 722 mmHg 57%
    02:00 +13°C° 0 mm 1 mps 722 mmHg 56%
    03:00 +13°C° 0 mm 1 mps 721 mmHg 54%
    04:00 +12°C° 0 mm 1 mps 721 mmHg 53%
    05:00 +12°C° 0 mm 1 mps 721 mmHg 52%
    06:00 +13°C° 0 mm 1 mps 721 mmHg 50%
    07:00 +14°C° 0 mm 1 mps 722 mmHg 48%
    08:00 +15°C° 0 mm 1 mps 722 mmHg 46%
    09:00 +16°C° 0 mm 1 mps 722 mmHg 43%
    10:00 +17°C° 0 mm 2 mps 722 mmHg 39%
    11:00 +18°C° 0 mm 2 mps 722 mmHg 35%
    12:00 +18°C° 0 mm 2 mps 722 mmHg 35%
    13:00 +18°C° 0 mm 2 mps 721 mmHg 35%
    14:00 +18°C° 0 mm 2 mps 721 mmHg 35%
    15:00 +18°C° 0 mm 2 mps 721 mmHg 40%
    16:00 +17°C° 0 mm 2 mps 721 mmHg 44%
    17:00 +16°C° 0 mm 2 mps 721 mmHg 49%
    18:00 +16°C° 0 mm 2 mps 722 mmHg 50%
    19:00 +15°C° 0 mm 2 mps 722 mmHg 51%
    20:00 +15°C° 0 mm 2 mps 722 mmHg 53%
    21:00 +14°C° 0 mm 2 mps 722 mmHg 55%
    22:00 +14°C° 0 mm 2 mps 722 mmHg 58%
    23:00 +14°C° 0 mm 2 mps 722 mmHg 60%

    19 January, Friday

    Time Temperature Precipitation Wind Pressure Humidity
    00:00 +13°C° 0 mm 2 mps 722 mmHg 63%
    01:00 +13°C° 0 mm 2 mps 722 mmHg 66%
    02:00 +12°C° 0 mm 2 mps 722 mmHg 69%
    03:00 +12°C° 0 mm 2 mps 722 mmHg 72%
    04:00 +12°C° 0 mm 2 mps 722 mmHg 74%
    05:00 +10°C° 0 mm 2 mps 722 mmHg 77%
    06:00 +12°C° 0 mm 2 mps 723 mmHg 75%
    07:00 +12°C° 0 mm 2 mps 723 mmHg 73%
    08:00 +13°C° 0 mm 2 mps 723 mmHg 71%
    09:00 +14°C° 0 mm 2 mps 724 mmHg 65%
    10:00 +15°C° 0 mm 2 mps 724 mmHg 60%
    11:00 +15°C° 0 mm 2 mps 724 mmHg 54%
    12:00 +16°C° 0 mm 2 mps 724 mmHg 54%
    13:00 +16°C° 0 mm 2 mps 724 mmHg 53%
    14:00 +16°C° 0 mm 2 mps 723 mmHg 52%
    15:00 +15°C° 0 mm 2 mps 724 mmHg 54%
    16:00 +15°C° 0 mm 1 mps 724 mmHg 56%
    17:00 +15°C° 0 mm 1 mps 725 mmHg 57%
    18:00 +14°C° 0 mm 2 mps 725 mmHg 56%
    19:00 +14°C° 0 mm 2 mps 726 mmHg 55%
    20:00 +13°C° 0 mm 2 mps 726 mmHg 54%
    21:00 +13°C° 0 mm 2 mps 726 mmHg 54%
    22:00 +13°C° 0 mm 2 mps 726 mmHg 53%
    23:00 +12°C° 0 mm 2 mps 726 mmHg 53%

    20 January, Saturday

    Time Temperature Precipitation Wind Pressure Humidity
    00:00 +12°C° 0 mm 2 mps 726 mmHg 54%
    01:00 +12°C° 0 mm 2 mps 726 mmHg 55%
    02:00 +12°C° 0 mm 2 mps 726 mmHg 57%
    03:00 +10°C° 0 mm 2 mps 726 mmHg 56%
    04:00 +10°C° 0 mm 2 mps 726 mmHg 55%
    05:00 +10°C° 0 mm 2 mps 726 mmHg 55%
    06:00 +11°C° 0 mm 3 mps 727 mmHg 53%
    07:00 +12°C° 0 mm 3 mps 727 mmHg 51%
    08:00 +12°C° 0 mm 3 mps 728 mmHg 49%
    09:00 +14°C° 0 mm 3 mps 728 mmHg 45%
    10:00 +15°C° 0 mm 4 mps 728 mmHg 41%
    11:00 +18°C° 0 mm 4 mps 728 mmHg 37%
    12:00 +18°C° 0 mm 4 mps 728 mmHg 35%
    13:00 +19°C° 0 mm 4 mps 727 mmHg 33%
    14:00 +20°C° 0 mm 4 mps 727 mmHg 31%
    15:00 +18°C° 0 mm 4 mps 727 mmHg 36%
    16:00 +17°C° 0 mm 3 mps 727 mmHg 40%
    17:00 +16°C° 0 mm 3 mps 727 mmHg 45%
    18:00 +16°C° 0 mm 3 mps 727 mmHg 48%
    19:00 +14°C° 0 mm 3 mps 728 mmHg 52%
    20:00 +13°C° 0 mm 3 mps 728 mmHg 55%
    21:00 +14°C° 0 mm 2 mps 728 mmHg 58%
    22:00 +13°C° 0 mm 2 mps 728 mmHg 61%
    23:00 +13°C° 0 mm 2 mps 728 mmHg 64%

    21 January, Sunday

    Time Temperature Precipitation Wind Pressure Humidity
    00:00 +12°C° 0 mm 2 mps 728 mmHg 65%
    01:00 +12°C° 0 mm 2 mps 727 mmHg 66%
    02:00 +10°C° 0 mm 2 mps 727 mmHg 67%
    03:00 +10°C° 0 mm 2 mps 727 mmHg 68%
    04:00 +10°C° 0 mm 2 mps 727 mmHg 68%
    05:00 +10°C° 0 mm 2 mps 727 mmHg 69%
    06:00 +12°C° 0 mm 2 mps 728 mmHg 64%
    07:00 +13°C° 0 mm 2 mps 728 mmHg 60%
    08:00 +14°C° 0 mm 2 mps 728 mmHg 55%
    09:00 +16°C° 0 mm 2 mps 728 mmHg 48%
    10:00 +18°C° 0 mm 2 mps 728 mmHg 41%
    11:00 +19°C° 0 mm 3 mps 729 mmHg 34%
    12:00 +20°C° 0 mm 3 mps 728 mmHg 32%
    13:00 +21°C° 0 mm 3 mps 728 mmHg 30%
    14:00 +21°C° 0 mm 3 mps 727 mmHg 28%
    15:00 +20°C° 0 mm 3 mps 727 mmHg 32%
    16:00 +19°C° 0 mm 2 mps 727 mmHg 36%
    17:00 +17°C° 0 mm 2 mps 727 mmHg 41%
    18:00 +17°C° 0 mm 2 mps 727 mmHg 43%
    19:00 +16°C° 0 mm 2 mps 728 mmHg 45%
    20:00 +15°C° 0 mm 2 mps 728 mmHg 47%
    21:00 +15°C° 0 mm 2 mps 728 mmHg 47%
    22:00 +14°C° 0 mm 1 mps 728 mmHg 46%
    23:00 +14°C° 0 mm 1 mps 727 mmHg 46%
    Show more